Voltar ao catálogo

STARLINK-32235

AtivoComunicaçõesVLEO
NORAD 60739·PAYLOAD·🇺🇸 United States

Lançado Aug 28, 2024 de Cape Canaveral Space Force Station

Loading…

Próximas Passagens (próximas 24 horas)

TLE

AtualizadoSource: CelesTrak SupGP

Época: Sep 15, 2026, 01:55 UTC

1 60739C 24152V   26258.08034722  .00032714  00000+0  96661-3 0  2583
2 60739  53.1569 107.0308 0001303  81.8898 196.2076 15.34372197    18

Acompanhe STARLINK-32235 em tempo real com AllMySat

Download on the App Store